When you browse on this site, cookies collect data to enhance your experience and personalize the content and advertising you see.
Visit our Privacy Policy to learn more. By continuing to use the site, you agree to this use of cookies and data.
  • In Latvia
  • List of Countries
  • For 7 days
  • Water Temperature
  • Satellite Maps
  • Weather Map
  • Weather Widgets
  • user-avatar
    Login

    Hourly Weather Mayrhofen

    Today, 23 May, Thursday

    Time Temperature Precipitation Wind Pressure Humidity
    00:00 +2°C° 0 mm 1 mps 617 mmHg 96%
    01:00 +2°C° 0 mm 1 mps 617 mmHg 97%
    02:00 +2°C° 0 mm 1 mps 617 mmHg 96%
    03:00 +1°C° 0 mm 1 mps 617 mmHg 95%
    04:00 +1°C° 0 mm 1 mps 616 mmHg 94%
    05:00 +3°C° 0 mm 1 mps 617 mmHg 91%
    06:00 +4°C° 0 mm 1 mps 617 mmHg 87%
    07:00 +5°C° 0 mm 1 mps 618 mmHg 88%
    08:00 +7°C° 0 mm 1 mps 618 mmHg 82%
    09:00 +7°C° 0 mm 2 mps 618 mmHg 77%
    10:00 +8°C° 0 mm 2 mps 619 mmHg 72%
    11:00 +9°C° 0 mm 2 mps 619 mmHg 68%
    12:00 +10°C° 0 mm 2 mps 619 mmHg 64%
    13:00 +12°C° 0 mm 2 mps 619 mmHg 61%
    14:00 +12°C° 0 mm 2 mps 619 mmHg 59%
    15:00 +12°C° 0 mm 2 mps 619 mmHg 58%
    16:00 +12°C° 0 mm 2 mps 618 mmHg 57%
    17:00 +10°C° 0 mm 2 mps 618 mmHg 64%
    18:00 +8°C° 0 mm 2 mps 617 mmHg 71%
    19:00 +7°C° 0 mm 2 mps 616 mmHg 77%
    20:00 +6°C° 0 mm 1 mps 616 mmHg 82%
    21:00 +4°C° 0 mm 1 mps 616 mmHg 87%
    22:00 +2°C° 0 mm 1 mps 615 mmHg 92%
    23:00 +2°C° 0 mm 1 mps 615 mmHg 91%

    Tomorrow, 24 May, Friday

    Time Temperature Precipitation Wind Pressure Humidity
    00:00 +2°C° 0 mm 1 mps 615 mmHg 91%
    01:00 +2°C° 0 mm 1 mps 615 mmHg 90%
    02:00 +2°C° 0 mm 1 mps 615 mmHg 88%
    03:00 +2°C° 0 mm 1 mps 615 mmHg 86%
    04:00 +2°C° 0 mm 1 mps 614 mmHg 84%
    05:00 +4°C° 0 mm 1 mps 615 mmHg 78%
    06:00 +6°C° 0 mm 1 mps 616 mmHg 71%
    07:00 +7°C° 0 mm 0 mps 617 mmHg 64%
    08:00 +10°C° 0 mm 1 mps 617 mmHg 58%
    09:00 +12°C° 0 mm 1 mps 618 mmHg 51%
    10:00 +13°C° 0 mm 1 mps 618 mmHg 45%
    11:00 +14°C° 0 mm 1 mps 618 mmHg 44%
    12:00 +15°C° 0 mm 1 mps 618 mmHg 43%
    13:00 +15°C° 0 mm 2 mps 618 mmHg 42%
    14:00 +15°C° 0 mm 2 mps 618 mmHg 44%
    15:00 +15°C° 0 mm 2 mps 618 mmHg 45%
    16:00 +15°C° 0 mm 2 mps 618 mmHg 47%
    17:00 +13°C° 0 mm 2 mps 617 mmHg 56%
    18:00 +12°C° 0 mm 2 mps 616 mmHg 64%
    19:00 +10°C° 0 mm 1 mps 616 mmHg 73%
    20:00 +9°C° 0.1 mm 1 mps 615 mmHg 78%
    21:00 +7°C° 0.1 mm 1 mps 615 mmHg 84%
    22:00 +4°C° 0.1 mm 0 mps 615 mmHg 90%
    23:00 +4°C° 0 mm 0 mps 615 mmHg 90%

    Day after tomorrow, 25 May, Saturday

    Time Temperature Precipitation Wind Pressure Humidity
    00:00 +4°C° 0 mm 0 mps 615 mmHg 90%
    01:00 +4°C° 0 mm 0 mps 615 mmHg 90%
    02:00 +4°C° 0 mm 0 mps 614 mmHg 91%
    03:00 +3°C° 0 mm 0 mps 614 mmHg 91%
    04:00 +3°C° 0 mm 0 mps 614 mmHg 92%
    05:00 +5°C° 0 mm 0 mps 615 mmHg 86%
    06:00 +7°C° 0 mm 0 mps 616 mmHg 81%
    07:00 +8°C° 0 mm 0 mps 616 mmHg 76%
    08:00 +10°C° 0.1 mm 0 mps 617 mmHg 71%
    09:00 +11°C° 0.1 mm 0 mps 617 mmHg 67%
    10:00 +13°C° 0.1 mm 1 mps 618 mmHg 62%
    11:00 +13°C° 0.6 mm 1 mps 618 mmHg 65%
    12:00 +13°C° 0.6 mm 1 mps 617 mmHg 68%
    13:00 +13°C° 0.6 mm 1 mps 617 mmHg 71%
    14:00 +12°C° 1.3 mm 1 mps 617 mmHg 75%
    15:00 +11°C° 1.3 mm 1 mps 617 mmHg 79%
    16:00 +11°C° 1.3 mm 1 mps 616 mmHg 84%
    17:00 +10°C° 2 mm 1 mps 616 mmHg 87%
    18:00 +9°C° 2 mm 1 mps 616 mmHg 91%
    19:00 +8°C° 2 mm 1 mps 616 mmHg 95%
    20:00 +7°C° 1.2 mm 1 mps 616 mmHg 95%
    21:00 +7°C° 1.2 mm 1 mps 616 mmHg 96%
    22:00 +7°C° 1.2 mm 1 mps 616 mmHg 96%
    23:00 +5°C° 0.2 mm 0 mps 616 mmHg 96%

    26 May, Sunday

    Time Temperature Precipitation Wind Pressure Humidity
    00:00 +5°C° 0.2 mm 0 mps 616 mmHg 96%
    01:00 +5°C° 0.2 mm 0 mps 615 mmHg 95%
    02:00 +4°C° 0 mm 0 mps 615 mmHg 95%
    03:00 +4°C° 0 mm 0 mps 615 mmHg 95%
    04:00 +3°C° 0 mm 0 mps 615 mmHg 95%
    05:00 +6°C° 0 mm 1 mps 615 mmHg 93%
    06:00 +7°C° 0 mm 1 mps 616 mmHg 91%
    07:00 +8°C° 0 mm 1 mps 617 mmHg 88%
    08:00 +10°C° 0 mm 1 mps 617 mmHg 82%
    09:00 +11°C° 0 mm 1 mps 618 mmHg 76%
    10:00 +12°C° 0 mm 1 mps 618 mmHg 70%
    11:00 +13°C° 0.1 mm 1 mps 618 mmHg 67%
    12:00 +14°C° 0.1 mm 1 mps 618 mmHg 64%
    13:00 +15°C° 0.1 mm 1 mps 618 mmHg 61%
    14:00 +14°C° 0.6 mm 1 mps 618 mmHg 64%
    15:00 +14°C° 0.6 mm 2 mps 617 mmHg 68%
    16:00 +14°C° 0.6 mm 2 mps 617 mmHg 71%
    17:00 +13°C° 0.8 mm 2 mps 617 mmHg 78%
    18:00 +12°C° 0.8 mm 2 mps 616 mmHg 85%
    19:00 +9°C° 0.8 mm 2 mps 616 mmHg 92%
    20:00 +10°C° 0.4 mm 1 mps 616 mmHg 94%
    21:00 +9°C° 0.4 mm 1 mps 616 mmHg 96%
    22:00 +8°C° 0.4 mm 1 mps 616 mmHg 98%
    23:00 +8°C° 0.4 mm 1 mps 615 mmHg 98%

    27 May, Monday

    Time Temperature Precipitation Wind Pressure Humidity
    00:00 +8°C° 0.4 mm 1 mps 615 mmHg 98%
    01:00 +8°C° 0.4 mm 1 mps 615 mmHg 98%
    02:00 +8°C° 0.2 mm 1 mps 614 mmHg 98%
    03:00 +8°C° 0.2 mm 1 mps 614 mmHg 98%
    04:00 +7°C° 0.2 mm 1 mps 613 mmHg 98%
    05:00 +8°C° 0.1 mm 1 mps 613 mmHg 97%
    06:00 +8°C° 0.1 mm 1 mps 613 mmHg 96%
    07:00 +9°C° 0.1 mm 1 mps 613 mmHg 94%
    08:00 +9°C° 0.3 mm 1 mps 613 mmHg 93%
    09:00 +9°C° 0.3 mm 1 mps 613 mmHg 91%
    10:00 +10°C° 0.3 mm 1 mps 613 mmHg 89%
    11:00 +10°C° 1.1 mm 1 mps 613 mmHg 89%
    12:00 +10°C° 1.1 mm 1 mps 613 mmHg 88%
    13:00 +10°C° 1.1 mm 1 mps 612 mmHg 88%
    14:00 +10°C° 1.1 mm 1 mps 612 mmHg 88%
    15:00 +10°C° 1.1 mm 1 mps 612 mmHg 87%
    16:00 +9°C° 1.1 mm 0 mps 611 mmHg 87%
    17:00 +9°C° 0.5 mm 0 mps 611 mmHg 89%
    18:00 +9°C° 0.5 mm 0 mps 611 mmHg 91%
    19:00 +8°C° 0.5 mm 0 mps 611 mmHg 93%
    20:00 +8°C° 0.9 mm 0 mps 610 mmHg 94%
    21:00 +7°C° 0.9 mm 0 mps 610 mmHg 96%
    22:00 +6°C° 0.9 mm 0 mps 610 mmHg 97%
    23:00 +6°C° 1.3 mm 0 mps 610 mmHg 97%

    28 May, Tuesday

    Time Temperature Precipitation Wind Pressure Humidity
    00:00 +6°C° 1.3 mm 0 mps 610 mmHg 97%
    01:00 +6°C° 1.3 mm 0 mps 610 mmHg 97%
    02:00 +6°C° 0.8 mm 0 mps 609 mmHg 97%
    03:00 +5°C° 0.8 mm 0 mps 609 mmHg 97%
    04:00 +5°C° 0.8 mm 0 mps 609 mmHg 97%
    05:00 +5°C° 0.6 mm 0 mps 609 mmHg 95%
    06:00 +6°C° 0.6 mm 0 mps 609 mmHg 94%
    07:00 +6°C° 0.6 mm 0 mps 610 mmHg 93%
    08:00 +7°C° 0.2 mm 0 mps 610 mmHg 88%
    09:00 +9°C° 0.2 mm 1 mps 611 mmHg 83%
    10:00 +10°C° 0.2 mm 1 mps 611 mmHg 78%
    11:00 +10°C° 0.4 mm 1 mps 611 mmHg 77%
    12:00 +10°C° 0.4 mm 2 mps 612 mmHg 77%
    13:00 +10°C° 0.4 mm 2 mps 612 mmHg 76%
    14:00 +10°C° 0.7 mm 2 mps 612 mmHg 78%
    15:00 +9°C° 0.7 mm 2 mps 612 mmHg 80%
    16:00 +9°C° 0.7 mm 2 mps 612 mmHg 82%
    17:00 +9°C° 1.2 mm 1 mps 612 mmHg 87%
    18:00 +8°C° 1.2 mm 1 mps 611 mmHg 92%
    19:00 +8°C° 1.2 mm 1 mps 611 mmHg 96%
    20:00 +7°C° 0.4 mm 1 mps 612 mmHg 96%
    21:00 +7°C° 0.4 mm 1 mps 612 mmHg 97%
    22:00 +7°C° 0.4 mm 1 mps 612 mmHg 97%
    23:00 +7°C° 0.2 mm 1 mps 612 mmHg 97%
    Show more